Location: Miami, Florida
(25.6830°N, 80.1700°W)
Time: 23:00:02
(UTC-04:00)

Tiangong 2 - Pass Details

Date: 14 November 2017
Orbit: 386 x 391 km, 42.8° (Epoch: 18 November)

Event Time Altitude Azimuth Distance (km) Brightness Sun altitude
Rises 20:34:21 0° 286° (WNW) 2,264 6.0 -27.5°
Reaches altitude 10° 20:37:00 10° 263° (W) 1,406 4.9 -28.1°
Enters shadow 20:38:18 15° 239° (WSW) 1,163 4.2 -28.4°
